Regional Weather Roundup
Issued by NWS

Home | Current Version | Previous Version | Text Only | Print | Product List | Glossary Off
Versions: 1 2 3 4 5 6 7 8 9 10 11 12 13 14 15 16 17 18 19 20 21 22 23 24 25 26 27 28 29 30 31 32 33 34 35 36 37 38 39 40 41 42 43 44 45 46 47 48 49 50

000
ASUS44 KMEG 021810
RWRTN
TENNESSEE HOURLY STATE WEATHER ROUNDUP
NATIONAL WEATHER SERVICE MEMPHIS TN
100 PM CDT MON MAY 02 2016

TNZ002-004-019-021-049-052-054-088>092-021900-
WEST TENNESSEE

CITY           SKY/WX    TMP DP  RH WIND       PRES   REMARKS
MEMPHIS INTL   CLOUDY    62  57  83 NW8       30.02S
NWS MEMPHIS      N/A     59 N/A N/A MISG        N/A
JACKSON        CLOUDY    57  55  93 CALM      30.00R
DYERSBURG      CLOUDY    63  54  72 NE3         N/A
UNION CITY     MOSUNNY   63  54  72 VRB3      29.99F
LEXINGTON      PTSUNNY   55  55 100 NW15      29.97F
$$

TNZ008-025-027-028-033-062-065-066-021900-
NORTH MIDDLE TENNESSEE

CITY           SKY/WX    TMP DP  RH WIND       PRES   REMARKS
NASHVILLE      LGT RAIN  59  55  88 S3        30.02S
CLARKSVILLE    CLOUDY    57  54  89 N8        29.99F
SMYRNA         LGT RAIN  59  57  94 NE6       30.02F
COOKEVILLE     CLOUDY    73  66  78 VRB7      29.97S
CROSSVILLE     LGT RAIN  68  64  87 CALM      30.01S FOG
$$

TNZ061-075-076-078-094-096-097-021900-
SOUTH MIDDLE TENNESSEE

CITY           SKY/WX    TMP DP  RH WIND       PRES   REMARKS
FAYETTEVILLE   PTSUNNY   70  68  94 W10       29.99F
TULLAHOMA      PTSUNNY   66  66 100 W9        30.00S
WINCHESTER     MOSUNNY   72  66  83 SW7       29.98F
MCMINNVILLE    MOSUNNY   73  66  78 W8        29.97F
COLUMBIA       CLOUDY   N/A N/A N/A E6        30.00F
SHELBYVILLE    CLOUDY    64  61  88 NW15      30.02R
$$

TNZ017-018-042-046-047-021900-
NORTHEAST TENNESSEE

CITY           SKY/WX    TMP DP  RH WIND       PRES   REMARKS
TRI CITIES     PTSUNNY   76  59  55 SW10      29.97F
$$

TNZ012-013-036-069-073-074-021900-
CENTRAL EAST TENNESSEE

CITY           SKY/WX    TMP DP  RH WIND       PRES   REMARKS
KNOXVILLE      CLOUDY    77  64  64 W13       29.96F
OAK RIDGE      CLOUDY    75  62  64 S8        29.99R
GATLINBURG     CLEAR     81  63  54 W9        29.95S
MORRISTOWN     MOCLDY    77  61  57 W9        29.97S
$$

TNZ083-085-099-021900-
SOUTHEAST TENNESSEE

CITY           SKY/WX    TMP DP  RH WIND       PRES   REMARKS
CHATTANOOGA    CLOUDY    80  63  55 S13       29.96F
$$

SKY/WX REPORTED AS FAIR MEANS FEW OR NO CLOUDS BELOW
12 THOUSAND FEET.




USA.gov is the U.S. government's official web portal to all federal, state and local government web resources and services.